Mount Carmel, IL

12:00 AM CST on December 13, 2019 (GMT -0600)
Mount Carmel Municipal

Weather History for KAJG - October, 2019

Change the Weather History Date:

Saturday, October 26, 2019

  Actual Average (KLWV) Record (KLWV)
Temperature  
Mean Temperature 58 °F 54 °F  
Max Temperature 66 °F 66 °F 82 °F (2000)
Min Temperature 50 °F 43 °F 29 °F (2013)
Degree Days  
Heating Degree Days 7 11  
Month to date heating degree days 198  
Since 1 July heating degree days 237  
Cooling Degree Days 0 0  
Month to date cooling degree days 31  
Year to date cooling degree days 1385  
Growing Degree Days 8 (Base 50)    
Moisture  
Dew Point 51 °F    
Average Humidity 90    
Maximum Humidity 97    
Minimum Humidity 80    
Precipitation  
Precipitation 2.08 in 0.12 in 2.16 in (2019)
Month to date precipitation 3.52  
Year to date precipitation 36.06  
Sea Level Pressure  
Sea Level Pressure 29.73 in    
Wind  
Wind Speed 13 mph (East)    
Max Wind Speed 33 mph    
Max Gust Speed 43 mph    
Visibility 7 miles    
Events Rain    
T = Trace of Precipitation, MM = Missing Value Source: NWS Daily Summary

Daily Weather History Graph

Daily Weather History Graph

Search for Another Location

Airport or City:

Astronomy

Oct. 26, 2019 Rise Set
Actual Time 7:11 AM CDT 5:58 PM CDT
Civil Twilight 6:43 AM CDT 6:25 PM CDT
Nautical Twilight 6:12 AM CDT 6:56 PM CDT
Astronomical Twilight 5:41 AM CDT 7:27 PM CDT
Moon 5:08 AM CDT (10/26) 5:31 PM CDT (10/26)
Length of Visible Light 11h 41m
Length of Day
10h 47m
Waning Crescent, 3% of the Moon is Illuminated
Oct 26
Waning Crescent
Oct 27
New
Nov 4
First Quarter
Nov 12
Full
Nov 19
Last Quarter

Hourly Weather History & Observations

Time (CDT) Temp. Dew Point Humidity Pressure Visibility Wind Dir Wind Speed Gust Speed Precip Events Conditions
12:15 AM 50.9 °F 45.9 °F 83% 30.12 in 10.0 mi North 6.9 mph - N/A   Clear
12:35 AM 50.9 °F 45.9 °F 83% 30.10 in 10.0 mi East 9.2 mph - N/A   Mostly Cloudy
12:55 AM 50.9 °F 45.7 °F 82% 30.10 in 10.0 mi NNE 5.8 mph - N/A   Mostly Cloudy
1:15 AM 50.9 °F 45.7 °F 82% 30.09 in 10.0 mi NNE 8.1 mph - N/A   Overcast
1:55 AM 51.8 °F 45.7 °F 80% 30.07 in 10.0 mi NE 10.4 mph - N/A   Overcast
2:15 AM 51.4 °F 45.7 °F 81% 30.05 in 10.0 mi ENE 11.5 mph - N/A   Overcast
2:35 AM 51.8 °F 45.9 °F 80% 30.05 in 10.0 mi NE 10.4 mph - N/A   Overcast
2:55 AM 51.8 °F 46.4 °F 82% 30.05 in 10.0 mi NNE 8.1 mph - N/A Rain Light Rain
3:15 AM 50.9 °F 46.6 °F 85% 30.04 in 10.0 mi NE 8.1 mph - 0.01 in Rain Rain
3:35 AM 50.4 °F 46.9 °F 88% 30.02 in 10.0 mi NNE 9.2 mph - 0.02 in Rain Rain
3:55 AM 50.2 °F 47.1 °F 89% 30.00 in 10.0 mi NE 10.4 mph - 0.03 in Rain Light Rain
4:15 AM 50.0 °F 47.5 °F 91% 29.99 in 10.0 mi ENE 10.4 mph - 0.01 in Rain Light Rain
4:35 AM 50.2 °F 47.8 °F 92% 29.98 in 10.0 mi ENE 9.2 mph - 0.01 in   Drizzle
4:55 AM 50.4 °F 48.2 °F 92% 29.97 in 7.0 mi ENE 10.4 mph - 0.03 in Rain Rain
5:15 AM 50.2 °F 48.6 °F 94% 29.96 in 5.0 mi NE 11.5 mph - 0.05 in Rain Rain
5:35 AM 50.4 °F 48.7 °F 94% 29.95 in 7.0 mi NE 11.5 mph - 0.07 in Rain Light Rain
5:55 AM 50.9 °F 49.1 °F 94% 29.94 in 5.0 mi NE 10.4 mph - 0.14 in Rain Heavy Rain
6:15 AM 50.4 °F 48.9 °F 95% 29.93 in 4.0 mi NNE 10.4 mph - 0.09 in Rain Heavy Rain
6:35 AM 50.2 °F 48.7 °F 95% 29.92 in 3.0 mi NNE 10.4 mph - 0.21 in Rain Heavy Rain
6:55 AM 50.2 °F 48.7 °F 95% 29.90 in 3.0 mi NNE 12.7 mph 19.6 mph 0.33 in Rain Heavy Rain
7:15 AM 50.2 °F 48.7 °F 95% 29.87 in 3.0 mi NE 20.7 mph - 0.08 in Rain Rain
7:35 AM 50.2 °F 48.6 °F 94% 29.86 in 4.0 mi NE 19.6 mph 28.8 mph 0.14 in Rain Rain
7:55 AM 50.4 °F 48.9 °F 95% 29.85 in 5.0 mi NE 19.6 mph 24.2 mph 0.18 in Rain Rain
8:15 AM 50.4 °F 48.9 °F 95% 29.86 in 4.0 mi ENE 13.8 mph 19.6 mph 0.04 in Rain Heavy Rain
8:35 AM 50.4 °F 49.1 °F 95% 29.85 in 2.5 mi ENE 11.5 mph - 0.17 in Rain Heavy Rain
8:55 AM 50.7 °F 49.3 °F 95% 29.84 in 3.0 mi ENE 15.0 mph - 0.30 in Rain Rain
9:15 AM 50.9 °F 49.3 °F 94% 29.82 in 4.0 mi ENE 15.0 mph - 0.03 in Rain Rain
9:35 AM 51.1 °F 49.8 °F 95% 29.80 in 5.0 mi NE 17.3 mph 24.2 mph 0.09 in Rain Rain
9:55 AM 51.6 °F 50.0 °F 94% 29.78 in 2.0 mi ENE 17.3 mph - 0.24 in Rain Rain
10:15 AM 51.8 °F 50.5 °F 95% 29.77 in 5.0 mi ENE 15.0 mph 18.4 mph 0.04 in Rain Rain
10:35 AM 52.7 °F 51.1 °F 94% 29.76 in 2.5 mi ENE 15.0 mph - 0.13 in Rain Heavy Rain
10:55 AM 52.7 °F 51.6 °F 96% 29.74 in 2.5 mi East 17.3 mph - 0.23 in Rain Rain
11:15 AM 53.2 °F 52.0 °F 95% 29.72 in 4.0 mi ENE 16.1 mph - 0.06 in Rain Light Rain
11:35 AM 53.6 °F 52.2 °F 95% 29.71 in 5.0 mi East 16.1 mph - 0.11 in Rain Rain
11:55 AM 54.0 °F 52.7 °F 95% 29.68 in 1.8 mi ENE 15.0 mph - 0.27 in Rain Heavy Rain
12:15 PM 55.0 °F 53.8 °F 96% 29.66 in 5.0 mi East 15.0 mph - 0.03 in Rain Light Rain
12:35 PM 55.9 °F 54.7 °F 96% 29.62 in 5.0 mi East 15.0 mph - 0.06 in Rain Light Rain
12:55 PM 56.8 °F 55.6 °F 96% 29.59 in 5.0 mi East 16.1 mph - 0.10 in Rain Rain
1:15 PM 58.1 °F 57.0 °F 96% 29.57 in 5.0 mi East 16.1 mph - 0.05 in Rain Rain
1:35 PM 59.0 °F 58.1 °F 97% 29.55 in 2.5 mi East 15.0 mph - 0.14 in Rain Light Rain
1:55 PM 60.4 °F 59.4 °F 96% 29.52 in 5.0 mi East 16.1 mph 20.7 mph 0.15 in Rain Light Rain
2:15 PM 61.7 °F 60.6 °F 96% 29.50 in 5.0 mi East 15.0 mph 20.7 mph 0.01 in Rain Light Rain
2:35 PM 63.3 °F 62.2 °F 96% 29.47 in 10.0 mi ESE 18.4 mph 23.0 mph 0.01 in   Overcast
2:55 PM 64.9 °F 62.8 °F 93% 29.45 in 7.0 mi ESE 19.6 mph 26.5 mph 0.01 in   Overcast
3:15 PM 65.7 °F 63.1 °F 92% 29.43 in 10.0 mi ESE 24.2 mph 29.9 mph N/A   Overcast
3:35 PM 65.8 °F 63.1 °F 91% 29.41 in 10.0 mi ESE 20.7 mph - N/A   Overcast
3:55 PM 66.4 °F 63.5 °F 90% 29.40 in 7.0 mi SE 24.2 mph 28.8 mph N/A   Overcast
4:15 PM 66.9 °F 63.5 °F 89% 29.39 in 7.0 mi SE 23.0 mph 28.8 mph N/A   Overcast
4:35 PM 66.4 °F 64.0 °F 92% 29.40 in 2.0 mi SSE 19.6 mph 27.6 mph 0.04 in Rain Rain
4:55 PM 65.1 °F 61.7 °F 89% 29.41 in 3.0 mi SSW 33.4 mph 40.3 mph 0.07 in Rain Light Rain
5:15 PM 62.4 °F 58.3 °F 86% 29.38 in 10.0 mi SW 20.7 mph 35.7 mph N/A   Overcast
5:35 PM 60.8 °F 57.2 °F 88% 29.42 in 10.0 mi SSW 21.9 mph 25.3 mph N/A   Mostly Cloudy
5:55 PM 59.2 °F 55.4 °F 87% 29.43 in 10.0 mi SSW 23.0 mph 29.9 mph N/A   Overcast
6:10 PM 58.3 °F 54.9 °F 88% 29.45 in 10.0 mi SSW 20.7 mph 26.5 mph N/A   Overcast
6:35 PM 56.1 °F 52.3 °F 87% 29.49 in 10.0 mi SW 5.8 mph 42.6 mph N/A   Overcast
6:55 PM 55.0 °F 51.6 °F 88% 29.51 in 10.0 mi Calm Calm - N/A   Overcast
7:15 PM 54.1 °F 51.3 °F 90% 29.53 in 10.0 mi SW 19.6 mph 29.9 mph N/A   Overcast
7:35 PM 53.8 °F 50.4 °F 88% 29.55 in 10.0 mi SW 13.8 mph 26.5 mph N/A   Overcast
7:55 PM 53.2 °F 49.5 °F 87% 29.56 in 5.0 mi SW 8.1 mph 21.9 mph N/A   Overcast
8:15 PM 53.2 °F 49.1 °F 86% 29.57 in 10.0 mi SW 6.9 mph 31.1 mph N/A   Overcast
8:35 PM 53.1 °F 48.7 °F 85% 29.58 in 10.0 mi WSW 20.7 mph 27.6 mph N/A   Overcast
8:55 PM 52.2 °F 48.6 °F 88% 29.60 in 5.0 mi SW 20.7 mph 27.6 mph N/A   Overcast
9:15 PM 51.8 °F 47.7 °F 86% 29.62 in 10.0 mi WSW 20.7 mph 28.8 mph N/A   Overcast
9:35 PM 51.4 °F 47.5 °F 86% 29.63 in 10.0 mi WSW 16.1 mph 27.6 mph N/A   Overcast
9:55 PM 51.1 °F 47.1 °F 86% 29.65 in 10.0 mi WSW 17.3 mph 21.9 mph N/A   Overcast
10:15 PM 51.3 °F 46.9 °F 85% 29.66 in 10.0 mi WSW 20.7 mph 25.3 mph N/A   Overcast
10:35 PM 51.1 °F 46.8 °F 85% 29.68 in 10.0 mi WSW 18.4 mph 21.9 mph N/A   Overcast
10:55 PM 50.9 °F 46.4 °F 85% 29.70 in 10.0 mi WSW 16.1 mph - N/A   Overcast
11:15 PM 51.1 °F 46.6 °F 85% 29.71 in 10.0 mi WSW 20.7 mph 28.8 mph N/A   Overcast
11:35 PM 50.9 °F 46.4 °F 85% 29.71 in 10.0 mi WSW 20.7 mph 26.5 mph N/A   Overcast
11:55 PM 50.7 °F 46.2 °F 85% 29.73 in 10.0 mi WSW 19.6 mph 27.6 mph N/A   Overcast